Location: Palmerston North
(40.3500°S, 175.6170°E)
Time: 08:22:21
(UTC+13:00)

IGS 5A - Pass Details

Date: 24 January 2019
Orbit: 583 x 589 km, 97.6° (Epoch: 27 September)

Event Time Altitude Azimuth Distance (km) Brightness Sun altitude
Rises 23:40:47 0° 165° (SSE) 2,852 7.6 -25.3°
Reaches altitude 10° 23:42:59 10° 162° (SSE) 1,943 6.6 -25.5°
Enters shadow 23:46:04 45° 143° (SE) 814 4.2 -25.7°
